Upper Bear Creek Observed Data For Previous 48 Hours

Caption
Day and Hour Reservoir Elevation (behind dam)* Tailwater Elevation (below dam)* Average Hourly Discharge*
1/15/2018 1 AM CST 797.11 726.86 201
1/15/2018 2 AM CST 797.11 726.87 201
1/15/2018 3 AM CST 797.11 726.86 201
1/15/2018 4 AM CST 797.11 726.85 201
1/15/2018 5 AM CST 797.11 726.87 201
1/15/2018 6 AM CST 797.11 726.87 201
1/15/2018 7 AM CST 797.11 726.87 201
1/15/2018 8 AM CST 797.11 726.87 201
1/15/2018 9 AM CST 797.11 726.85 201
1/15/2018 10 AM CST 797.11 726.86 201
1/15/2018 11 AM CST 797.11 726.86 201
1/15/2018 12 PM CST 797.11 726.86 201
1/15/2018 1 PM CST 797.11 726.87 201
1/15/2018 2 PM CST 797.11 726.88 201
1/15/2018 3 PM CST 797.11 726.86 201
1/15/2018 4 PM CST 797.11 726.87 201
1/15/2018 5 PM CST 797.11 726.86 201
1/15/2018 6 PM CST 797.11 726.88 201
1/15/2018 7 PM CST 797.11 726.86 201
1/15/2018 8 PM CST 797.11 726.87 201
1/15/2018 9 PM CST 797.11 726.87 201
1/15/2018 10 PM CST 797.11 726.86 201
1/15/2018 11 PM CST 797.11 726.86 201
1/16/2018 12 AM CST 797.11 726.85 201
1/16/2018 1 AM CST 797.11 726.86 201
1/16/2018 2 AM CST 797.11 726.87 201
1/16/2018 3 AM CST 797.11 726.87 201
1/16/2018 4 AM CST 797.11 726.86 201
1/16/2018 5 AM CST 797.11 726.86 201
1/16/2018 6 AM CST 797.11 726.86 201
1/16/2018 7 AM CST 797.11 726.87 201
1/16/2018 8 AM CST 797.11 726.85 201
1/16/2018 9 AM CST 797.09 726.86 200
1/16/2018 10 AM CST 797.03 726.86 195
1/16/2018 11 AM CST 797.02 726.85 192
1/16/2018 12 PM CST 797.02 726.86 191
1/16/2018 1 PM CST 797.02 726.86 191
1/16/2018 2 PM CST 797.02 726.86 191
1/16/2018 3 PM CST 797.01 726.86 191
1/16/2018 4 PM CST 797.01 726.86 190
1/16/2018 5 PM CST 797.01 726.86 190
1/16/2018 6 PM CST 797.00 726.85 190
1/16/2018 7 PM CST 797.00 726.85 190
1/16/2018 8 PM CST 797.00 726.87 189
1/16/2018 9 PM CST 796.99 726.86 189
1/16/2018 10 PM CST 796.99 726.86 189
1/16/2018 11 PM CST 796.99 726.86 189
1/17/2018 12 AM CST 796.99 726.85 189
1/17/2018 1 AM CST 796.98 726.86 188
1/17/2018 2 AM CST 796.98 726.84 188
1/17/2018 3 AM CST 796.98 726.87 188
1/17/2018 4 AM CST 796.97 726.86 187
1/17/2018 5 AM CST 796.97 726.87 187
1/17/2018 6 AM CST 796.97 726.86 187
1/17/2018 7 AM CST 796.96 726.86 187
1/17/2018 8 AM CST 796.95 726.85 186
1/17/2018 9 AM CST 796.96 726.48 186
1/17/2018 10 AM CST 796.95 726.01 56
1/17/2018 11 AM CST 796.96 725.91 6
1/17/2018 12 PM CST 796.96 725.89 926
1/17/2018 1 PM CST 796.96 725.89 6
1/17/2018 2 PM CST 796.98 725.89 7
1/17/2018 3 PM CST 796.98 725.89 8
1/17/2018 4 PM CST 796.98 725.90 8
1/17/2018 5 PM CST 796.98 726.15 8
1/17/2018 6 PM CST 796.98 726.86 188
1/17/2018 7 PM CST 796.97 726.86 187
1/17/2018 8 PM CST 796.97 726.86 187

Elevations are in feet above sea level. Discharges are in cubic feet per second and are reported at the end of the hour.